DW6386 Weather Reports


time (UTC)temp
C
wind
direction
speed
KPH
gust
KPH
rain 1hr
cm
rain 24hr
cm
rain mn
cm
humidity
%
barometer
mb
20260904211505 35 265 0.0 3.2 0.00 0.00 0.00 53 1011.8
20260904210004 35 99 0.0 6.4 0.00 0.00 0.00 52 1011.9
20260904204503 35 278 0.0 9.7 0.00 0.00 0.00 51 1012.0
20260904203007 36 94 1.6 8.0 0.00 0.00 0.00 47 1012.2
20260904201626 36 59 0.0 4.8 0.00 0.00 0.00 50 1012.4
20260904200117 36 236 0.0 6.4 0.00 0.00 0.00 50 1012.6
20260904194556 36 148 0.0 4.8 0.00 0.00 0.00 48 1012.9
20260904193053 36 278 0.0 4.8 0.00 0.00 0.00 49 1013.3
20260904191550 36 340 1.6 4.8 0.00 0.00 0.00 51 1013.5
20260904190048 36 34 0.0 1.6 0.00 0.00 0.00 52 1013.6
20260904184547 33 202 0.0 3.2 0.00 0.00 0.00 60 1013.7
20260904183047 31 148 0.0 1.6 0.00 0.00 0.00 61 1014.1
20260904181544 32 151 0.0 0.0 0.00 0.00 0.00 59 1014.3
20260904180045 33 131 1.6 8.0 0.00 0.00 0.00 58 1014.5
20260904174547 35 99 1.6 9.7 0.00 0.00 0.00 57 1014.6
20260904173040 35 78 1.6 6.4 0.00 0.00 0.00 59 1014.6
20260904171605 34 226 3.2 8.0 0.00 0.00 0.00 61 1014.7
20260904170033 33 297 1.6 9.7 0.00 0.00 0.00 62 1014.8
20260904164531 33 252 3.2 8.0 0.00 0.00 0.00 62 1015.0
20260904163045 33 181 0.0 6.4 0.00 0.00 0.00 63 1015.3
20260904161528 33 65 0.0 3.2 0.00 0.00 0.00 63 1015.3
20260904160025 32 250 0.0 4.8 0.00 0.00 0.00 65 1015.5
20260904154521 33 240 0.0 4.8 0.00 0.00 0.00 64 1015.6
20260904153025 32 146 0.0 4.8 0.00 0.00 0.00 66 1015.5
20260904151528 31 126 0.0 4.8 0.00 0.00 0.00 68 1015.6
20260904150014 31 136 0.0 1.6 0.00 0.00 0.00 70 1015.5
20260904144509 30 231 0.0 3.2 0.00 0.00 0.00 70 1015.5
20260904143004 30 224 0.0 4.8 0.00 0.00 0.00 74 1015.3
20260904141501 29 196 0.0 4.8 0.00 0.00 0.00 76 1015.4
20260904140059 29 257 0.0 3.2 0.00 0.00 0.00 77 1015.4
20260904134558 28 254 0.0 3.2 0.00 0.00 0.00 80 1015.4
20260904133105 28 268 0.0 3.2 0.00 0.00 0.00 80 1015.4
20260904131552 27 235 0.0 3.2 0.00 0.00 0.00 82 1015.4
20260904130054 27 176 0.0 0.0 0.00 0.00 0.00 88 1015.4
20260904124544 26 124 0.0 0.0 0.00 0.00 0.00 94 1015.4
20260904123043 25 124 0.0 0.0 0.00 0.00 0.00 98 1015.4
20260904121537 23 124 0.0 0.0 0.00 0.00 0.00 98 1015.2
20260904120044 22 124 0.0 0.0 0.00 0.00 0.00 98 1015.1
20260904114535 22 124 0.0 0.0 0.00 0.00 0.00 98 1015.0
20260904113036 21 124 0.0 0.0 0.00 0.00 0.00 97 1015.0
20260904111531 22 124 0.0 0.0 0.00 0.00 0.00 98 1014.7
20260904110030 21 124 0.0 0.0 0.00 0.00 0.00 97 1014.5
20260904104530 22 124 0.0 0.0 0.00 0.00 0.00 97 1014.3
20260904103028 22 124 0.0 0.0 0.00 0.00 0.00 97 1014.1
20260904101531 22 124 0.0 0.0 0.00 0.00 0.00 97 1014.0
20260904100026 22 124 0.0 0.0 0.00 0.00 0.00 97 1014.2
20260904094524 22 124 0.0 0.0 0.00 0.00 0.00 97 1014.1
20260904093024 22 124 0.0 0.0 0.00 0.00 0.00 97 1014.0
20260904091523 22 124 0.0 0.0 0.00 0.00 0.00 96 1013.8
20260904090026 22 124 0.0 0.0 0.00 0.00 0.00 96 1013.8
20260904084523 22 124 0.0 0.0 0.00 0.00 0.00 96 1013.7
20260904083024 22 124 0.0 0.0 0.00 0.00 0.00 96 1013.8
20260904081518 22 124 0.0 0.0 0.00 0.00 0.00 96 1013.7
20260904080019 22 124 0.0 0.0 0.00 0.00 0.00 96 1013.7
20260904074522 22 124 0.0 0.0 0.00 0.00 0.00 95 1013.7
20260904073016 22 124 0.0 0.0 0.00 0.00 0.00 95 1013.7
20260904071514 23 124 0.0 0.0 0.00 0.00 0.00 95 1013.6
20260904070015 23 124 0.0 0.0 0.00 0.00 0.00 95 1013.9
20260904064510 23 124 0.0 0.0 0.00 0.00 0.00 95 1013.9
20260904063009 23 124 0.0 0.0 0.00 0.00 0.00 94 1013.9
20260904061506 23 124 0.0 0.0 0.00 0.00 0.00 94 1014.0
20260904060006 23 122 0.0 0.0 0.00 0.00 0.00 94 1014.1
20260904054508 23 122 0.0 0.0 0.00 0.00 0.00 94 1014.3
20260904053002 23 122 0.0 0.0 0.00 0.00 0.00 94 1014.3
20260904051600 23 122 0.0 1.6 0.00 0.00 0.00 93 1014.4
20260904050059 24 122 0.0 0.0 0.00 0.00 0.00 93 1014.4
20260904044612 24 122 0.0 0.0 0.00 0.00 0.00 92 1014.5
20260904043059 24 122 0.0 0.0 0.00 0.00 0.00 92 1014.7
20260904041553 24 122 0.0 0.0 0.00 0.00 0.00 91 1014.5
20260904040057 25 122 0.0 0.0 0.00 0.00 0.00 91 1014.5
20260904034558 25 122 0.0 0.0 0.00 0.00 0.00 90 1014.7
20260904033053 25 122 0.0 0.0 0.00 0.00 0.00 90 1014.8
20260904031551 25 122 0.0 0.0 0.00 0.00 0.00 90 1014.9
20260904030058 25 122 0.0 0.0 0.00 0.00 0.00 90 1014.9
20260904024551 25 122 0.0 0.0 0.00 0.00 0.00 89 1014.7
20260904023052 25 122 0.0 0.0 0.00 0.00 0.00 89 1014.7
20260904021558 25 122 0.0 0.0 0.00 0.00 0.00 87 1014.5
20260904020049 26 122 0.0 0.0 0.00 0.00 0.00 86 1014.5
20260904014602 26 170 0.0 3.2 0.00 0.00 0.00 85 1014.3
20260904013112 26 210 0.0 3.2 0.00 0.00 0.00 85 1014.2
20260904011613 26 210 0.0 0.0 0.00 0.00 0.00 82 1013.7
20260904010049 27 210 0.0 0.0 0.00 0.00 0.00 81 1013.6
20260904004547 27 210 0.0 0.0 0.00 0.00 0.00 78 1013.3
20260904003047 28 210 0.0 0.0 0.00 0.00 0.00 77 1013.2
20260904001545 28 210 0.0 0.0 0.00 0.00 0.00 74 1013.0
20260904000045 29 210 0.0 0.0 0.00 0.00 0.00 71 1013.0
20260903234545 30 214 0.0 0.0 0.00 0.00 0.00 70 1012.9
20260903233044 31 214 0.0 0.0 0.00 0.00 0.00 68 1012.8
20260903231547 31 214 0.0 0.0 0.00 0.00 0.00 63 1012.8
20260903230044 32 214 0.0 0.0 0.00 0.00 0.00 61 1012.7
20260903224543 32 221 0.0 0.0 0.00 0.00 0.00 58 1012.7
20260903223042 33 229 0.0 3.2 0.00 0.00 0.00 57 1012.8
20260903221542 33 230 0.0 6.4 0.00 0.00 0.00 55 1012.6
20260903220045 33 222 1.6 4.8 0.00 0.00 0.00 55 1012.7
20260903214540 33 240 0.0 4.8 0.00 0.00 0.00 52 1012.7
20260903213040 34 176 0.0 1.6 0.00 0.00 0.00 52 1012.7